Find Starlink 34616

NORAD ID: 66320 Int'l Des: 2025-253 Owner: SPXS Country: US Constellation: starlink operational
LEOCIRCULAR

实时位置

正在加载3D地球...

关于 Starlink 34616

正在加载描述...

即将过境

Passes for default location (London). Set your location on the main map for personalized predictions.

高度历史

Loading altitude history...

两行轨道根数

1 66320U 25253B 26106.05587087 .00006301 00000-0 23825-3 0 9992
2 66320 43.0015 1.0966 0001187 270.3394 89.7322 15.27586845 26043
Epoch: Apr 16, 2026 • Age: 41 hours

当前状态

高度 489.1 km
速度 7.62 km/s
星下点 -26.68°S, 156.18°W
发射日期 Nov 6, 2025
运行时间 0.4 years
类型 internet

技术详情

分类 Payload
质量 575.00 kg
干质量 530.00 kg
总质量 575.00 kg
长度 0.30 m
直径 4.10 m
跨度 29.00 m
形状 Box + pan
制造商 SPXS
平台类型 Starlink V2MO
阶段状态 In Orbit
所有者/国家 SPXS/US

Most Searched